| time (UTC) | temp C | wind direction | speed KPH | gust KPH | rain 1hr cm | rain 24hr cm | rain mn cm | humidity % | barometer mb |
| 20260502130618 | 5 | 323 | 3.2 | 6.4 | 0.00 | 0.00 | 0.00 | 65 | 1021.8 |
| 20260502123618 | 2 | 327 | 1.6 | 3.2 | 0.00 | 0.00 | 0.00 | 78 | 1021.6 |
| 20260502122617 | 1 | 319 | 0.0 | 3.2 | 0.00 | 0.00 | 0.00 | 83 | 1021.6 |
| 20260502121618 | 0 | 320 | 0.0 | 0.0 | 0.00 | 0.00 | 0.00 | 85 | 1021.6 |
| 20260502120618 | 0 | 321 | 0.0 | 0.0 | 0.00 | 0.00 | 0.00 | 86 | 1021.5 |
| 20260502115617 | 0 | 333 | 0.0 | 0.0 | 0.00 | 0.00 | 0.00 | 86 | 1021.4 |
| 20260502114618 | 0 | 342 | 0.0 | 0.0 | 0.00 | 0.00 | 0.00 | 84 | 1021.3 |
| 20260502113621 | 0 | 342 | 0.0 | 0.0 | 0.00 | 0.00 | 0.00 | 85 | 1021.2 |
| 20260502112618 | 0 | 342 | 0.0 | 0.0 | 0.00 | 0.00 | 0.00 | 86 | 1021.2 |
| 20260502111618 | 0 | 342 | 0.0 | 0.0 | 0.00 | 0.00 | 0.00 | 86 | 1021.2 |
| 20260502110621 | 0 | 342 | 0.0 | 0.0 | 0.00 | 0.00 | 0.00 | 86 | 1021.2 |
| 20260502105618 | 0 | 342 | 0.0 | 0.0 | 0.00 | 0.00 | 0.00 | 86 | 1021.2 |
| 20260502104618 | 0 | 342 | 0.0 | 0.0 | 0.00 | 0.00 | 0.00 | 86 | 1021.2 |
| 20260502103618 | 0 | 342 | 0.0 | 0.0 | 0.00 | 0.00 | 0.00 | 86 | 1021.2 |
| 20260502102618 | 0 | 342 | 0.0 | 0.0 | 0.00 | 0.00 | 0.00 | 85 | 1021.2 |
| 20260502101617 | 0 | 342 | 0.0 | 0.0 | 0.00 | 0.00 | 0.00 | 85 | 1021.1 |
| 20260502100618 | 0 | 342 | 0.0 | 0.0 | 0.00 | 0.00 | 0.00 | 85 | 1021.1 |
| 20260502090618 | 1 | 342 | 0.0 | 0.0 | 0.00 | 0.00 | 0.00 | 83 | 1020.9 |
| 20260502070618 | 2 | 342 | 0.0 | 0.0 | 0.00 | 0.00 | 0.00 | 79 | 1021.1 |
| 20260502065618 | 2 | 342 | 0.0 | 0.0 | 0.00 | 0.00 | 0.00 | 78 | 1021.1 |
| 20260502064618 | 2 | 342 | 0.0 | 0.0 | 0.00 | 0.00 | 0.00 | 77 | 1021.1 |
| 20260502063618 | 2 | 342 | 0.0 | 0.0 | 0.00 | 0.00 | 0.00 | 77 | 1021.3 |
| 20260502062618 | 2 | 342 | 0.0 | 0.0 | 0.00 | 0.00 | 0.00 | 77 | 1021.2 |
| 20260502061617 | 2 | 342 | 0.0 | 0.0 | 0.00 | 0.00 | 0.00 | 76 | 1021.0 |
| 20260502060618 | 2 | 342 | 0.0 | 0.0 | 0.00 | 0.00 | 0.00 | 74 | 1021.0 |
| 20260502055618 | 2 | 342 | 0.0 | 0.0 | 0.00 | 0.00 | 0.00 | 73 | 1020.9 |
| 20260502054618 | 3 | 342 | 0.0 | 0.0 | 0.00 | 0.00 | 0.00 | 72 | 1020.8 |
| 20260502053617 | 3 | 342 | 0.0 | 0.0 | 0.00 | 0.00 | 0.00 | 70 | 1020.8 |
| 20260502052618 | 3 | 342 | 0.0 | 0.0 | 0.00 | 0.00 | 0.00 | 67 | 1020.8 |
| 20260502051621 | 3 | 342 | 0.0 | 0.0 | 0.00 | 0.00 | 0.00 | 64 | 1020.8 |
| 20260502050618 | 3 | 342 | 0.0 | 0.0 | 0.00 | 0.00 | 0.00 | 63 | 1020.7 |
| 20260502045618 | 3 | 342 | 0.0 | 0.0 | 0.00 | 0.00 | 0.00 | 65 | 1020.5 |
| 20260502044618 | 3 | 342 | 0.0 | 0.0 | 0.00 | 0.00 | 0.00 | 65 | 1020.5 |
| 20260502043618 | 4 | 342 | 0.0 | 0.0 | 0.00 | 0.00 | 0.00 | 65 | 1020.4 |
| 20260502042618 | 4 | 342 | 0.0 | 0.0 | 0.00 | 0.00 | 0.00 | 64 | 1020.5 |
| 20260502041618 | 5 | 342 | 0.0 | 0.0 | 0.00 | 0.00 | 0.00 | 63 | 1020.5 |
| 20260502040618 | 5 | 342 | 0.0 | 0.0 | 0.00 | 0.00 | 0.00 | 61 | 1020.4 |
| 20260502035618 | 5 | 342 | 0.0 | 0.0 | 0.00 | 0.00 | 0.00 | 60 | 1020.5 |
| 20260502034618 | 5 | 342 | 0.0 | 0.0 | 0.00 | 0.00 | 0.00 | 59 | 1020.4 |
| 20260502033621 | 5 | 342 | 0.0 | 0.0 | 0.00 | 0.00 | 0.00 | 56 | 1020.4 |
| 20260502032618 | 6 | 342 | 0.0 | 0.0 | 0.00 | 0.00 | 0.00 | 55 | 1020.4 |
| 20260502031621 | 6 | 342 | 0.0 | 0.0 | 0.00 | 0.00 | 0.00 | 51 | 1020.3 |
| 20260502030618 | 7 | 342 | 0.0 | 0.0 | 0.00 | 0.00 | 0.00 | 48 | 1020.3 |
| 20260502025618 | 7 | 342 | 0.0 | 0.0 | 0.00 | 0.00 | 0.00 | 47 | 1020.1 |
| 20260502024618 | 7 | 342 | 0.0 | 0.0 | 0.00 | 0.00 | 0.00 | 45 | 1020.0 |
| 20260502023618 | 8 | 342 | 0.0 | 0.0 | 0.00 | 0.00 | 0.00 | 43 | 1019.9 |
| 20260502022618 | 8 | 342 | 0.0 | 3.2 | 0.00 | 0.00 | 0.00 | 41 | 1019.8 |
| 20260502021618 | 8 | 341 | 1.6 | 4.8 | 0.00 | 0.00 | 0.00 | 41 | 1019.7 |
| 20260502020618 | 8 | 341 | 1.6 | 4.8 | 0.00 | 0.00 | 0.00 | 40 | 1019.6 |
| 20260502015618 | 9 | 341 | 1.6 | 4.8 | 0.00 | 0.00 | 0.00 | 39 | 1019.4 |
| 20260502014618 | 10 | 338 | 1.6 | 4.8 | 0.00 | 0.00 | 0.00 | 36 | 1019.4 |
| 20260502013618 | 10 | 335 | 4.8 | 8.0 | 0.00 | 0.00 | 0.00 | 34 | 1019.4 |
| 20260502012617 | 11 | 338 | 8.0 | 14.5 | 0.00 | 0.00 | 0.00 | 33 | 1019.3 |
| 20260502011618 | 11 | 335 | 9.7 | 20.9 | 0.00 | 0.00 | 0.00 | 32 | 1019.3 |
| 20260502010618 | 11 | 336 | 6.4 | 12.9 | 0.00 | 0.00 | 0.00 | 32 | 1019.2 |
| 20260502005618 | 11 | 333 | 9.7 | 17.7 | 0.00 | 0.00 | 0.00 | 30 | 1019.0 |
| 20260502004618 | 11 | 336 | 9.7 | 20.9 | 0.00 | 0.00 | 0.00 | 30 | 1018.9 |
| 20260502003618 | 11 | 329 | 9.7 | 17.7 | 0.00 | 0.00 | 0.00 | 30 | 1018.8 |
| 20260502002618 | 12 | 338 | 11.3 | 19.3 | 0.00 | 0.00 | 0.00 | 30 | 1018.8 |
| 20260502001620 | 12 | 337 | 9.7 | 19.3 | 0.00 | 0.00 | 0.00 | 30 | 1018.8 |
| 20260502000618 | 12 | 337 | 9.7 | 19.3 | 0.00 | 0.00 | 0.00 | 29 | 1018.8 |
| 20260501235618 | 12 | 324 | 8.0 | 19.3 | 0.00 | 0.00 | 0.00 | 29 | 1018.7 |
| 20260501234618 | 12 | 349 | 9.7 | 19.3 | 0.00 | 0.00 | 0.00 | 28 | 1018.7 |
| 20260501233618 | 12 | 340 | 8.0 | 17.7 | 0.00 | 0.00 | 0.00 | 29 | 1018.7 |
| 20260501232618 | 13 | 346 | 8.0 | 17.7 | 0.00 | 0.00 | 0.00 | 28 | 1018.7 |
| 20260501231618 | 13 | 333 | 12.9 | 29.0 | 0.00 | 0.00 | 0.00 | 27 | 1018.7 |
| 20260501230618 | 13 | 340 | 9.7 | 19.3 | 0.00 | 0.00 | 0.00 | 28 | 1018.6 |
| 20260501225618 | 13 | 318 | 11.3 | 27.4 | 0.00 | 0.00 | 0.00 | 28 | 1018.6 |
| 20260501224618 | 13 | 328 | 12.9 | 25.7 | 0.00 | 0.00 | 0.00 | 27 | 1018.6 |
| 20260501223618 | 13 | 329 | 11.3 | 27.4 | 0.00 | 0.00 | 0.00 | 27 | 1018.6 |
| 20260501222618 | 13 | 325 | 8.0 | 19.3 | 0.00 | 0.00 | 0.00 | 27 | 1018.4 |
| 20260501221618 | 13 | 296 | 8.0 | 25.7 | 0.00 | 0.00 | 0.00 | 27 | 1018.4 |
| 20260501220621 | 13 | 333 | 12.9 | 29.0 | 0.00 | 0.00 | 0.00 | 27 | 1018.4 |
| 20260501215618 | 13 | 341 | 14.5 | 30.6 | 0.00 | 0.00 | 0.00 | 27 | 1018.4 |
| 20260501214618 | 13 | 344 | 11.3 | 30.6 | 0.00 | 0.00 | 0.00 | 28 | 1018.4 |
| 20260501213618 | 14 | 334 | 12.9 | 30.6 | 0.00 | 0.00 | 0.00 | 27 | 1018.4 |
| 20260501212618 | 13 | 5 | 11.3 | 24.1 | 0.00 | 0.00 | 0.00 | 28 | 1018.4 |
| 20260501211618 | 14 | 345 | 11.3 | 25.7 | 0.00 | 0.00 | 0.00 | 28 | 1018.5 |
| 20260501210618 | 14 | 328 | 9.7 | 22.5 | 0.00 | 0.00 | 0.00 | 28 | 1018.5 |
| 20260501205618 | 14 | 315 | 9.7 | 24.1 | 0.00 | 0.00 | 0.00 | 30 | 1018.6 |
| 20260501204618 | 14 | 331 | 11.3 | 25.7 | 0.00 | 0.00 | 0.00 | 30 | 1018.8 |
| 20260501203618 | 13 | 338 | 16.1 | 27.4 | 0.00 | 0.00 | 0.00 | 31 | 1018.8 |
| 20260501202618 | 14 | 339 | 14.5 | 37.0 | 0.00 | 0.00 | 0.00 | 31 | 1018.9 |
| 20260501201618 | 14 | 327 | 8.0 | 24.1 | 0.00 | 0.00 | 0.00 | 33 | 1018.9 |
| 20260501200618 | 14 | 326 | 9.7 | 22.5 | 0.00 | 0.00 | 0.00 | 34 | 1018.9 |
| 20260501195620 | 13 | 340 | 9.7 | 29.0 | 0.00 | 0.00 | 0.00 | 34 | 1018.9 |
| 20260501194618 | 13 | 353 | 11.3 | 25.7 | 0.00 | 0.00 | 0.00 | 35 | 1018.9 |
| 20260501193618 | 13 | 333 | 12.9 | 27.4 | 0.00 | 0.00 | 0.00 | 37 | 1018.9 |
| 20260501192618 | 13 | 317 | 11.3 | 20.9 | 0.00 | 0.00 | 0.00 | 36 | 1018.8 |
| 20260501191618 | 13 | 316 | 9.7 | 24.1 | 0.00 | 0.00 | 0.00 | 38 | 1018.9 |
| 20260501190617 | 13 | 341 | 9.7 | 22.5 | 0.00 | 0.00 | 0.00 | 41 | 1018.9 |
| 20260501185618 | 13 | 336 | 11.3 | 30.6 | 0.00 | 0.00 | 0.00 | 38 | 1018.8 |
| 20260501184618 | 13 | 328 | 9.7 | 24.1 | 0.00 | 0.00 | 0.00 | 39 | 1018.8 |
| 20260501183618 | 13 | 316 | 9.7 | 24.1 | 0.00 | 0.00 | 0.00 | 40 | 1018.9 |
| 20260501182618 | 13 | 341 | 8.0 | 20.9 | 0.00 | 0.00 | 0.00 | 43 | 1018.9 |
| 20260501181618 | 12 | 323 | 11.3 | 22.5 | 0.00 | 0.00 | 0.00 | 42 | 1018.9 |
| 20260501180621 | 12 | 338 | 12.9 | 27.4 | 0.00 | 0.00 | 0.00 | 41 | 1019.0 |
| 20260501175618 | 12 | 334 | 12.9 | 24.1 | 0.00 | 0.00 | 0.00 | 41 | 1019.1 |
| 20260501174618 | 13 | 315 | 9.7 | 24.1 | 0.00 | 0.00 | 0.00 | 45 | 1019.0 |
| 20260501173621 | 13 | 326 | 11.3 | 25.7 | 0.00 | 0.00 | 0.00 | 45 | 1019.2 |
| 20260501172618 | 12 | 341 | 14.5 | 27.4 | 0.00 | 0.00 | 0.00 | 46 | 1019.2 |
| 20260501171618 | 12 | 331 | 11.3 | 29.0 | 0.00 | 0.00 | 0.00 | 48 | 1019.1 |
| 20260501170618 | 12 | 341 | 9.7 | 24.1 | 0.00 | 0.00 | 0.00 | 50 | 1019.1 |
| 20260501165620 | 11 | 342 | 11.3 | 24.1 | 0.00 | 0.00 | 0.00 | 50 | 1019.2 |
| 20260501164618 | 11 | 341 | 12.9 | 27.4 | 0.00 | 0.00 | 0.00 | 50 | 1019.1 |
| 20260501163618 | 11 | 353 | 11.3 | 19.3 | 0.00 | 0.00 | 0.00 | 52 | 1019.1 |
| 20260501162617 | 11 | 328 | 11.3 | 24.1 | 0.00 | 0.00 | 0.00 | 54 | 1019.1 |
| 20260501161617 | 11 | 329 | 12.9 | 25.7 | 0.00 | 0.00 | 0.00 | 54 | 1019.1 |
| 20260501160621 | 11 | 347 | 12.9 | 29.0 | 0.00 | 0.00 | 0.00 | 55 | 1019.1 |
| 20260501155618 | 11 | 332 | 11.3 | 25.7 | 0.00 | 0.00 | 0.00 | 55 | 1019.0 |
| 20260501154621 | 11 | 323 | 12.9 | 29.0 | 0.00 | 0.00 | 0.00 | 56 | 1019.0 |
| 20260501153621 | 11 | 328 | 8.0 | 20.9 | 0.00 | 0.00 | 0.00 | 58 | 1018.9 |
| 20260501152618 | 10 | 331 | 9.7 | 22.5 | 0.00 | 0.00 | 0.00 | 59 | 1019.0 |
| 20260501151621 | 10 | 318 | 8.0 | 20.9 | 0.00 | 0.00 | 0.00 | 59 | 1018.9 |
| 20260501150618 | 10 | 322 | 8.0 | 17.7 | 0.00 | 0.00 | 0.00 | 59 | 1018.8 |
| 20260501145618 | 9 | 319 | 9.7 | 20.9 | 0.00 | 0.00 | 0.00 | 60 | 1018.8 |
| 20260501144618 | 8 | 331 | 11.3 | 24.1 | 0.00 | 0.00 | 0.00 | 59 | 1018.8 |
| 20260501143618 | 8 | 331 | 9.7 | 20.9 | 0.00 | 0.00 | 0.00 | 59 | 1018.8 |
| 20260501142618 | 8 | 322 | 8.0 | 17.7 | 0.00 | 0.00 | 0.00 | 60 | 1018.8 |
| 20260501141617 | 8 | 330 | 9.7 | 17.7 | 0.00 | 0.00 | 0.00 | 60 | 1018.8 |
| 20260501140618 | 7 | 339 | 11.3 | 22.5 | 0.00 | 0.00 | 0.00 | 59 | 1018.8 |
| 20260501135618 | 8 | 335 | 6.4 | 14.5 | 0.00 | 0.00 | 0.00 | 60 | 1018.6 |
| 20260501134618 | 7 | 310 | 4.8 | 14.5 | 0.00 | 0.00 | 0.00 | 61 | 1018.6 |
| 20260501133619 | 7 | 293 | 4.8 | 12.9 | 0.00 | 0.00 | 0.00 | 61 | 1018.5 |